﻿#観測日時,平均風速,平均風向,最大風速,最大風速発生風向,最大瞬間風速,最大瞬間風速発生風向
#(年月日),(m/s)   ,(16方位),(m/s)   ,(16方位)        ,(m/s)       ,(16方位)            
2019/8/14 0:01,2.2,3,2.2,2,4.1,4
2019/8/14 0:02,2.2,3,2.2,2,3.3,3
2019/8/14 0:03,2.1,3,2.2,3,3.2,3
2019/8/14 0:04,2.1,3,2.1,3,3.7,3
2019/8/14 0:05,2.2,3,2.2,3,3.6,3
2019/8/14 0:06,2.2,3,2.2,3,2.6,3
2019/8/14 0:07,2.1,3,2.2,3,2.2,3
2019/8/14 0:08,2.1,3,2.2,3,2.2,2
2019/8/14 0:09,2.2,3,2.2,3,2.9,3
2019/8/14 0:10,2.2,3,2.2,3,2.9,2
2019/8/14 0:11,2.1,3,2.2,3,3.8,3
2019/8/14 0:12,2.1,3,2.2,3,3.8,3
2019/8/14 0:13,2,3,2.1,3,2.5,5
2019/8/14 0:14,2,3,2,3,3.8,3
2019/8/14 0:15,2,3,2,3,3.2,3
2019/8/14 0:16,2.1,3,2.1,3,3.8,4
2019/8/14 0:17,2,3,2.1,3,2.2,2
2019/8/14 0:18,2.2,3,2.2,3,4.4,3
2019/8/14 0:19,2.3,3,2.3,3,4.1,3
2019/8/14 0:20,2.3,3,2.3,3,2.9,4
2019/8/14 0:21,2.2,3,2.3,3,2.4,2
2019/8/14 0:22,2.1,3,2.2,3,2.6,2
2019/8/14 0:23,2.2,3,2.2,3,3.2,3
2019/8/14 0:24,2.2,3,2.3,3,2.6,3
2019/8/14 0:25,2.2,3,2.2,3,3.9,2
2019/8/14 0:26,2.2,3,2.2,3,3.9,2
2019/8/14 0:27,2.3,3,2.3,3,3.3,3
2019/8/14 0:28,2.1,3,2.2,3,3.6,3
2019/8/14 0:29,2,3,2.1,3,3,5
2019/8/14 0:30,2.1,3,2.1,3,3.9,3
2019/8/14 0:31,2.2,3,2.2,3,3.5,5
2019/8/14 0:32,2.2,3,2.2,3,3.1,4
2019/8/14 0:33,2.2,3,2.2,3,3.9,4
2019/8/14 0:34,2.3,3,2.3,3,3.7,4
2019/8/14 0:35,2.3,3,2.3,3,3.1,3
2019/8/14 0:36,2.2,3,2.3,3,2.7,4
2019/8/14 0:37,2.2,3,2.2,3,3.9,5
2019/8/14 0:38,2.4,3,2.4,3,5.7,4
2019/8/14 0:39,2.4,3,2.4,3,4.4,3
2019/8/14 0:40,2.4,3,2.5,3,3.6,3
2019/8/14 0:41,2.5,3,2.5,3,4.3,4
2019/8/14 0:42,2.5,3,2.5,3,3.7,4
2019/8/14 0:43,2.5,3,2.5,3,3.9,4
2019/8/14 0:44,2.5,3,2.5,3,3.6,3
2019/8/14 0:45,2.5,3,2.5,3,3.3,3
2019/8/14 0:46,2.7,3,2.7,3,5.6,3
2019/8/14 0:47,2.7,3,2.7,3,5.1,4
2019/8/14 0:48,2.6,3,2.7,3,3,4
2019/8/14 0:49,2.6,3,2.6,3,3.9,3
2019/8/14 0:50,2.7,3,2.7,3,5.5,3
2019/8/14 0:51,2.7,3,2.7,3,3.8,3
2019/8/14 0:52,2.7,3,2.7,3,3.7,3
2019/8/14 0:53,2.7,3,2.7,3,3,3
2019/8/14 0:54,2.6,3,2.7,3,3.2,4
2019/8/14 0:55,2.6,3,2.6,3,3,3
2019/8/14 0:56,2.5,3,2.6,3,2.9,4
2019/8/14 0:57,2.3,3,2.4,3,3,3
2019/8/14 0:58,2.4,3,2.4,3,3.2,3
2019/8/14 0:59,2.5,3,2.5,3,5.2,3
2019/8/14 1:00,2.5,3,2.5,3,5.6,3
2019/8/14 1:01,2.5,3,2.5,3,5.5,4
2019/8/14 1:02,2.5,3,2.5,3,4.1,3
2019/8/14 1:03,2.6,3,2.6,3,4.9,5
2019/8/14 1:04,2.8,3,2.8,3,4.4,3
2019/8/14 1:05,2.9,3,2.9,3,5,4
2019/8/14 1:06,2.9,3,2.9,3,3.8,3
2019/8/14 1:07,3,3,3,3,3.9,3
2019/8/14 1:08,3,3,3,3,3.3,4
2019/8/14 1:09,3,3,3,3,4.2,4
2019/8/14 1:10,2.7,3,2.9,3,2.7,3
2019/8/14 1:11,2.7,3,2.7,3,3.2,3
2019/8/14 1:12,2.6,3,2.7,3,3.3,3
2019/8/14 1:13,2.5,3,2.6,3,2.7,3
2019/8/14 1:14,2.4,3,2.5,3,3.6,4
2019/8/14 1:15,2.4,3,2.4,3,2.7,3
2019/8/14 1:16,2.4,3,2.4,3,3.8,3
2019/8/14 1:17,2.3,3,2.4,3,3.6,4
2019/8/14 1:18,2.2,3,2.3,3,2.4,3
2019/8/14 1:19,2.2,3,2.2,3,2.9,2
2019/8/14 1:20,2.2,3,2.2,3,3.1,2
2019/8/14 1:21,2.1,3,2.2,3,2.6,2
2019/8/14 1:22,2.1,3,2.1,3,2.7,2
2019/8/14 1:23,2.1,3,2.1,3,3.2,2
2019/8/14 1:24,2.1,3,2.1,3,2.9,3
2019/8/14 1:25,2,2,2,3,2.6,3
2019/8/14 1:26,2,2,2.1,3,3.2,3
2019/8/14 1:27,2.1,2,2.1,3,3.7,3
2019/8/14 1:28,2.2,2,2.2,3,4.4,3
2019/8/14 1:29,2.3,2,2.3,2,4.4,3
2019/8/14 1:30,2.3,3,2.4,3,4.4,3
2019/8/14 1:31,2.5,3,2.5,3,3.6,3
2019/8/14 1:32,2.5,3,2.5,3,3.5,3
2019/8/14 1:33,2.5,3,2.5,3,3.8,3
2019/8/14 1:34,2.6,3,2.6,3,3.8,3
2019/8/14 1:35,2.6,3,2.6,3,2.6,4
2019/8/14 1:36,2.5,3,2.6,3,2.7,3
2019/8/14 1:37,2.6,3,2.6,3,4.1,4
2019/8/14 1:38,2.5,3,2.6,3,3.5,3
2019/8/14 1:39,2.5,3,2.5,3,3.3,3
2019/8/14 1:40,2.4,3,2.5,3,2.5,4
2019/8/14 1:41,2.3,3,2.4,3,2.5,3
2019/8/14 1:42,2.3,3,2.3,3,3.5,2
2019/8/14 1:43,2.2,3,2.3,3,2.7,2
2019/8/14 1:44,2.2,3,2.2,3,3,2
2019/8/14 1:45,2.2,3,2.2,3,3.5,3
2019/8/14 1:46,2.3,3,2.3,3,3.6,3
2019/8/14 1:47,2.2,2,2.2,3,3.7,3
2019/8/14 1:48,2.2,2,2.2,3,3.3,3
2019/8/14 1:49,2.2,2,2.2,3,3.6,3
2019/8/14 1:50,2.2,2,2.2,3,3.2,3
2019/8/14 1:51,2.2,2,2.3,3,3.3,3
2019/8/14 1:52,2.3,2,2.3,3,3.7,3
2019/8/14 1:53,2.3,2,2.3,3,3.9,2
2019/8/14 1:54,2.2,2,2.2,3,2.7,2
2019/8/14 1:55,2.3,2,2.3,3,4.3,3
2019/8/14 1:56,2.3,2,2.3,2,4.2,3
2019/8/14 1:57,2.3,3,2.3,2,3.7,3
2019/8/14 1:58,2.3,3,2.3,2,3.9,3
2019/8/14 1:59,2.3,3,2.3,2,3.9,3
2019/8/14 2:00,2.3,3,2.3,2,3.3,3
2019/8/14 2:01,2.3,3,2.3,2,3.5,3
2019/8/14 2:02,2.3,3,2.3,2,3.7,3
2019/8/14 2:03,2.3,3,2.3,2,3.3,3
2019/8/14 2:04,2.4,3,2.4,3,2.5,3
2019/8/14 2:05,2.3,3,2.4,3,2.9,3
2019/8/14 2:06,2.2,3,2.3,3,3.2,2
2019/8/14 2:07,2.2,3,2.2,3,3.1,3
2019/8/14 2:08,2.1,3,2.2,3,2.9,3
2019/8/14 2:09,2.1,3,2.2,3,4.1,4
2019/8/14 2:10,2.1,3,2.2,3,3.3,2
2019/8/14 2:11,2.2,3,2.2,3,3.7,3
2019/8/14 2:12,2.2,3,2.2,3,3.5,3
2019/8/14 2:13,2.2,2,2.2,3,4.5,4
2019/8/14 2:14,2.3,3,2.3,3,3.1,3
2019/8/14 2:15,2.2,2,2.2,3,3.1,2
2019/8/14 2:16,2.3,3,2.3,3,3.9,3
2019/8/14 2:17,2.4,3,2.4,2,3.6,3
2019/8/14 2:18,2.5,3,2.5,3,3.8,4
2019/8/14 2:19,2.4,3,2.4,3,3.1,3
2019/8/14 2:20,2.4,3,2.4,3,3.2,4
2019/8/14 2:21,2.4,3,2.4,3,3,3
2019/8/14 2:22,2.4,3,2.4,3,3.5,3
2019/8/14 2:23,2.3,3,2.3,3,2.7,3
2019/8/14 2:24,2.3,3,2.3,3,3.5,2
2019/8/14 2:25,2.3,3,2.3,3,3.2,3
2019/8/14 2:26,2.2,3,2.2,3,3.7,3
2019/8/14 2:27,2.2,3,2.2,3,4.5,2
2019/8/14 2:28,2.2,3,2.2,3,4.4,3
2019/8/14 2:29,2.3,3,2.3,3,4.3,3
2019/8/14 2:30,2.3,3,2.4,3,4.3,3
2019/8/14 2:31,2.4,3,2.4,3,3.9,4
2019/8/14 2:32,2.4,3,2.4,3,4.4,3
2019/8/14 2:33,2.4,3,2.4,3,3.6,3
2019/8/14 2:34,2.4,3,2.4,3,3.7,3
2019/8/14 2:35,2.5,3,2.5,3,3.3,2
2019/8/14 2:36,2.4,3,2.5,3,3.1,3
2019/8/14 2:37,2.5,3,2.5,3,3.2,4
2019/8/14 2:38,2.4,3,2.4,3,3.3,3
2019/8/14 2:39,2.4,3,2.5,3,3.9,3
2019/8/14 2:40,2.3,3,2.4,3,2.7,3
2019/8/14 2:41,2.3,3,2.3,3,3.6,3
2019/8/14 2:42,2.3,3,2.3,3,3.5,3
2019/8/14 2:43,2.3,3,2.3,3,4.3,4
2019/8/14 2:44,2.4,3,2.4,3,5.4,3
2019/8/14 2:45,2.4,3,2.4,3,4.3,3
2019/8/14 2:46,2.4,3,2.4,3,2.9,3
2019/8/14 2:47,2.4,3,2.4,3,3.2,3
2019/8/14 2:48,2.3,3,2.4,3,3.7,3
2019/8/14 2:49,2.4,3,2.4,3,5.2,4
2019/8/14 2:50,2.6,3,2.6,3,4.1,2
2019/8/14 2:51,2.5,3,2.6,3,3.5,3
2019/8/14 2:52,2.5,2,2.5,3,3.7,3
2019/8/14 2:53,2.5,2,2.5,3,3.8,3
2019/8/14 2:54,2.5,2,2.5,3,3.2,3
2019/8/14 2:55,2.4,2,2.4,3,3,3
2019/8/14 2:56,2.4,2,2.4,3,2.5,3
2019/8/14 2:57,2.3,3,2.3,3,3,3
2019/8/14 2:58,2.3,3,2.3,3,2.7,4
2019/8/14 2:59,2,2,2.2,3,1.8,1
2019/8/14 3:00,1.8,2,2,3,1.3,1
2019/8/14 3:01,1.7,2,1.8,3,2.2,4
2019/8/14 3:02,1.6,2,1.7,2,1.8,3
2019/8/14 3:03,1.5,2,1.5,2,2.4,2
2019/8/14 3:04,1.3,2,1.5,2,2.1,2
2019/8/14 3:05,1.3,2,1.3,2,3.2,3
2019/8/14 3:06,1.4,2,1.4,2,3.6,2
2019/8/14 3:07,1.4,2,1.5,3,3,2
2019/8/14 3:08,1.5,2,1.5,3,2.5,1
2019/8/14 3:09,1.5,2,1.5,2,2.7,1
2019/8/14 3:10,1.6,2,1.6,2,2.2,1
2019/8/14 3:11,1.6,2,1.6,2,1.9,2
2019/8/14 3:12,1.7,2,1.7,2,2.7,2
2019/8/14 3:13,1.8,2,1.8,2,3,2
2019/8/14 3:14,1.8,2,1.8,2,1.6,3
2019/8/14 3:15,1.8,2,1.8,2,3.3,3
2019/8/14 3:16,1.6,2,1.8,2,1.9,2
2019/8/14 3:17,1.6,2,1.7,2,2.4,2
2019/8/14 3:18,1.6,2,1.6,2,3.3,1
2019/8/14 3:19,1.6,2,1.7,2,3.2,1
2019/8/14 3:20,1.7,2,1.7,2,3.2,3
2019/8/14 3:21,1.8,2,1.8,2,4.3,3
2019/8/14 3:22,1.8,2,1.8,2,3.5,4
2019/8/14 3:23,1.9,2,1.9,2,3.3,2
2019/8/14 3:24,1.9,2,1.9,2,2.6,2
2019/8/14 3:25,1.9,2,1.9,2,3.7,3
2019/8/14 3:26,1.9,2,1.9,2,2.2,3
2019/8/14 3:27,1.9,2,1.9,2,2.1,2
2019/8/14 3:28,1.9,2,1.9,2,2.6,3
2019/8/14 3:29,1.9,2,1.9,2,3.7,2
2019/8/14 3:30,2,2,2,2,3.7,3
2019/8/14 3:31,1.9,2,1.9,2,3.2,3
2019/8/14 3:32,1.9,2,1.9,2,3.7,3
2019/8/14 3:33,1.9,2,1.9,2,3,1
2019/8/14 3:34,2,2,2,2,3.2,3
2019/8/14 3:35,1.9,2,2,2,3,2
2019/8/14 3:36,2,2,2,2,3.2,1
2019/8/14 3:37,2,2,2,2,3,2
2019/8/14 3:38,2.1,2,2.1,2,4.7,3
2019/8/14 3:39,2.2,2,2.2,2,4.2,2
2019/8/14 3:40,2.1,2,2.2,2,2.5,3
2019/8/14 3:41,2.1,2,2.1,2,3.5,2
2019/8/14 3:42,2.1,2,2.1,2,2.5,3
2019/8/14 3:43,2.1,2,2.1,2,3.2,3
2019/8/14 3:44,2.1,2,2.1,2,3.7,2
2019/8/14 3:45,2.2,2,2.2,2,3.9,3
2019/8/14 3:46,2.3,2,2.3,2,4.4,3
2019/8/14 3:47,2.4,2,2.4,2,4.1,3
2019/8/14 3:48,2.3,2,2.4,2,3,4
2019/8/14 3:49,2.1,2,2.3,2,2.4,1
2019/8/14 3:50,2.1,2,2.1,2,2.6,1
2019/8/14 3:51,2.1,2,2.2,2,2.9,3
2019/8/14 3:52,2.1,2,2.1,2,2.6,2
2019/8/14 3:53,2.1,2,2.1,2,3.5,3
2019/8/14 3:54,2.1,2,2.1,2,2.9,1
2019/8/14 3:55,1.9,2,2.1,2,2.5,3
2019/8/14 3:56,1.9,2,2,2,3.7,4
2019/8/14 3:57,1.8,2,1.9,2,2.7,1
2019/8/14 3:58,1.7,2,1.7,2,3.6,3
2019/8/14 3:59,1.9,2,1.9,2,4.9,3
2019/8/14 4:00,2,2,2,2,4.7,3
2019/8/14 4:01,2.1,2,2.1,2,4.4,3
2019/8/14 4:02,2.2,2,2.2,2,3.5,2
2019/8/14 4:03,2.2,2,2.2,2,4.1,3
2019/8/14 4:04,2.4,2,2.4,2,3.8,3
2019/8/14 4:05,2.4,2,2.4,2,3.5,2
2019/8/14 4:06,2.3,2,2.4,2,2,2
2019/8/14 4:07,2.4,2,2.4,2,4.2,3
2019/8/14 4:08,2.4,2,2.4,2,3.3,4
2019/8/14 4:09,2.3,2,2.4,2,3.3,3
2019/8/14 4:10,2.3,2,2.3,2,3.6,3
2019/8/14 4:11,2.1,2,2.3,2,2.9,2
2019/8/14 4:12,2,2,2,2,2.1,3
2019/8/14 4:13,1.8,2,2,2,1.8,2
2019/8/14 4:14,1.7,2,1.8,2,2.4,3
2019/8/14 4:15,1.6,2,1.7,2,2,2
2019/8/14 4:16,1.6,2,1.6,2,3.2,2
2019/8/14 4:17,1.6,2,1.6,2,2.6,2
2019/8/14 4:18,1.6,2,1.6,2,3.1,3
2019/8/14 4:19,1.6,2,1.6,2,3.1,3
2019/8/14 4:20,1.6,2,1.7,2,2.9,2
2019/8/14 4:21,1.7,2,1.7,2,3,3
2019/8/14 4:22,1.8,2,1.8,2,3.2,3
2019/8/14 4:23,1.8,2,1.8,2,2.2,2
2019/8/14 4:24,1.8,2,1.8,2,2.4,2
2019/8/14 4:25,1.8,2,1.8,2,2.1,2
2019/8/14 4:26,1.8,2,1.8,2,2.2,2
2019/8/14 4:27,1.8,2,1.8,2,2,2
2019/8/14 4:28,1.8,2,1.8,2,2.9,2
2019/8/14 4:29,1.7,2,1.8,2,2,1
2019/8/14 4:30,1.6,2,1.7,2,1.4,1
2019/8/14 4:31,1.6,2,1.6,2,2.1,4
2019/8/14 4:32,1.5,2,1.6,2,1.6,2
2019/8/14 4:33,1.4,2,1.5,2,1.5,1
2019/8/14 4:34,1.3,2,1.4,2,2,3
2019/8/14 4:35,1.4,2,1.4,2,2.4,1
2019/8/14 4:36,1.3,2,1.4,2,1.8,1
2019/8/14 4:37,1.3,2,1.3,2,2.5,3
2019/8/14 4:38,1.3,2,1.3,2,2.1,2
2019/8/14 4:39,1.3,2,1.3,2,2.1,2
2019/8/14 4:40,1.3,2,1.3,2,2,2
2019/8/14 4:41,1.3,2,1.3,2,1.5,2
2019/8/14 4:42,1.2,2,1.3,2,1.6,1
2019/8/14 4:43,1.3,2,1.3,2,1.8,1
2019/8/14 4:44,1.3,2,1.3,2,2.5,2
2019/8/14 4:45,1.3,2,1.3,2,2.2,2
2019/8/14 4:46,1.3,2,1.3,2,2.4,1
2019/8/14 4:47,1.2,2,1.3,2,1.9,2
2019/8/14 4:48,1.2,2,1.2,2,2.2,2
2019/8/14 4:49,1.2,2,1.2,2,1.9,2
2019/8/14 4:50,1.2,2,1.3,2,2.1,3
2019/8/14 4:51,1.3,2,1.3,2,2,3
2019/8/14 4:52,1.3,2,1.3,2,1.5,2
2019/8/14 4:53,1.2,2,1.3,2,1,2
2019/8/14 4:54,1.2,2,1.2,2,2,3
2019/8/14 4:55,1.2,2,1.2,2,2.5,3
2019/8/14 4:56,1.2,2,1.2,2,2.4,4
2019/8/14 4:57,1.2,2,1.2,2,1.8,2
2019/8/14 4:58,1.2,2,1.2,2,1.3,16
2019/8/14 4:59,1.1,2,1.2,2,1.1,16
2019/8/14 5:00,1.1,2,1.1,2,1.4,2
2019/8/14 5:01,1.1,2,1.1,2,1.8,1
2019/8/14 5:02,1.1,2,1.1,2,2.4,2
2019/8/14 5:03,1.1,1,1.1,2,1.6,1
2019/8/14 5:04,1.1,1,1.1,2,2.4,3
2019/8/14 5:05,1.1,1,1.1,2,1.6,2
2019/8/14 5:06,1,1,1.1,2,1.5,16
2019/8/14 5:07,1,1,1,2,1.3,1
2019/8/14 5:08,1,1,1,2,1.1,2
2019/8/14 5:09,0.9,1,1,2,0.6,1
2019/8/14 5:10,0.9,1,0.9,2,1.3,16
2019/8/14 5:11,0.9,1,0.9,2,1.3,16
2019/8/14 5:12,0.8,1,0.9,2,0.8,1
2019/8/14 5:13,0.8,1,0.8,1,1.8,2
2019/8/14 5:14,0.8,2,0.9,1,2.1,2
2019/8/14 5:15,0.8,2,0.9,1,1.9,1
2019/8/14 5:16,0.9,1,0.9,1,1.8,1
2019/8/14 5:17,0.9,2,0.9,1,1.9,3
2019/8/14 5:18,1,2,1,1,2,2
2019/8/14 5:19,1,1,1,2,1.3,1
2019/8/14 5:20,1,2,1,2,0.8,2
2019/8/14 5:21,1,2,1,2,1.5,4
2019/8/14 5:22,1,2,1,2,1,16
2019/8/14 5:23,1,2,1,2,1.1,16
2019/8/14 5:24,0.9,2,1,2,1,16
2019/8/14 5:25,0.8,1,0.9,2,1.1,15
2019/8/14 5:26,0.8,1,0.8,2,1,16
2019/8/14 5:27,0.7,1,0.8,2,0.6,1
2019/8/14 5:28,0.6,1,0.7,2,0.9,16
2019/8/14 5:29,0.6,1,0.6,1,0.5,3
2019/8/14 5:30,0.5,1,0.6,2,0.6,16
2019/8/14 5:31,0.5,1,0.5,2,1.8,3
2019/8/14 5:32,0.6,1,0.6,2,1.8,3
2019/8/14 5:33,0.6,1,0.6,2,1.3,2
2019/8/14 5:34,0.6,1,0.6,2,1.3,1
2019/8/14 5:35,0.6,1,0.6,1,1.4,2
2019/8/14 5:36,0.6,2,0.6,1,1,1
2019/8/14 5:37,0.6,2,0.6,1,0.8,4
2019/8/14 5:38,0.6,2,0.6,1,0.5,11
2019/8/14 5:39,0.6,2,0.6,1,0.4,11
2019/8/14 5:40,0.6,2,0.6,1,0.8,2
2019/8/14 5:41,0.5,2,0.6,1,0.3,2
2019/8/14 5:42,0.4,2,0.5,1,0.5,10
2019/8/14 5:43,0.4,2,0.4,1,0.5,10
2019/8/14 5:44,0.3,4,0.4,1,0.5,10
2019/8/14 5:45,0.3,6,0.3,1,0.4,8
2019/8/14 5:46,0.2,8,0.2,2,0.3,16
2019/8/14 5:47,0.2,10,0.2,2,0.8,15
2019/8/14 5:48,0.2,14,0.2,2,0.6,15
2019/8/14 5:49,0.3,16,0.3,2,0.9,16
2019/8/14 5:50,0.3,16,0.3,2,1.4,16
2019/8/14 5:51,0.3,15,0.3,2,0.9,16
2019/8/14 5:52,0.3,16,0.3,2,0.5,1
2019/8/14 5:53,0.3,1,0.3,2,0.3,5
2019/8/14 5:54,0.3,1,0.3,4,0.4,2
2019/8/14 5:55,0.3,1,0.3,15,0.8,16
2019/8/14 5:56,0.4,1,0.4,1,0.9,2
2019/8/14 5:57,0.4,1,0.4,1,1.1,1
2019/8/14 5:58,0.4,2,0.4,1,1,2
2019/8/14 5:59,0.4,2,0.4,1,0.8,16
2019/8/14 6:00,0.4,2,0.4,1,1.3,3
2019/8/14 6:01,0.4,2,0.4,1,1.1,3
2019/8/14 6:02,0.5,2,0.5,2,1,2
2019/8/14 6:03,0.5,2,0.5,2,0.9,2
2019/8/14 6:04,0.6,2,0.6,2,0.9,1
2019/8/14 6:05,0.6,2,0.6,2,1.3,4
2019/8/14 6:06,0.7,2,0.7,2,1.4,2
2019/8/14 6:07,0.7,2,0.7,2,1.5,3
2019/8/14 6:08,0.7,2,0.7,2,1.5,3
2019/8/14 6:09,0.8,2,0.8,2,1.1,2
2019/8/14 6:10,0.7,2,0.8,2,0.8,16
2019/8/14 6:11,0.7,2,0.7,2,0.9,1
2019/8/14 6:12,0.7,2,0.7,2,1.3,2
2019/8/14 6:13,0.7,2,0.7,2,0.8,16
2019/8/14 6:14,0.7,2,0.7,2,1.5,2
2019/8/14 6:15,0.8,2,0.8,2,1.9,2
2019/8/14 6:16,0.8,2,0.8,2,1.5,1
2019/8/14 6:17,0.9,2,0.9,2,2.2,3
2019/8/14 6:18,0.9,2,0.9,2,2.1,3
2019/8/14 6:19,0.9,2,0.9,2,1.5,16
2019/8/14 6:20,0.9,2,0.9,2,1.1,2
2019/8/14 6:21,1,2,1,2,2.2,3
2019/8/14 6:22,1.1,2,1.1,2,2.7,3
2019/8/14 6:23,1.2,2,1.2,2,2.1,2
2019/8/14 6:24,1.3,2,1.3,2,2.6,2
2019/8/14 6:25,1.4,2,1.4,2,3.6,3
2019/8/14 6:26,1.5,2,1.5,2,2.9,3
2019/8/14 6:27,1.6,2,1.6,2,3.2,2
2019/8/14 6:28,1.7,2,1.7,2,2.4,3
2019/8/14 6:29,1.7,2,1.7,2,2.5,3
2019/8/14 6:30,1.8,3,1.8,2,2.5,3
2019/8/14 6:31,1.8,3,1.8,2,2.7,3
2019/8/14 6:32,1.8,3,1.8,2,2.7,3
2019/8/14 6:33,1.8,2,1.8,2,2.2,3
2019/8/14 6:34,1.9,3,1.9,2,2.6,3
2019/8/14 6:35,1.8,2,1.9,2,3.5,2
2019/8/14 6:36,1.9,2,1.9,2,3.7,2
2019/8/14 6:37,1.9,2,1.9,2,3.1,2
2019/8/14 6:38,1.9,2,1.9,2,2.7,2
2019/8/14 6:39,1.9,2,1.9,2,2.2,2
2019/8/14 6:40,1.9,2,1.9,2,3.1,3
2019/8/14 6:41,1.9,2,1.9,2,2.1,1
2019/8/14 6:42,1.9,2,1.9,2,3,2
2019/8/14 6:43,1.9,2,1.9,2,3,3
2019/8/14 6:44,1.8,2,1.9,2,2,3
2019/8/14 6:45,1.7,2,1.8,2,1.9,3
2019/8/14 6:46,1.6,2,1.7,2,1.5,1
2019/8/14 6:47,1.4,2,1.5,2,1.8,2
2019/8/14 6:48,1.4,2,1.4,2,2.9,3
2019/8/14 6:49,1.4,2,1.4,2,2.1,3
2019/8/14 6:50,1.4,2,1.4,2,2.5,2
2019/8/14 6:51,1.5,2,1.5,2,2.2,3
2019/8/14 6:52,1.4,2,1.5,2,2.6,2
2019/8/14 6:53,1.4,2,1.4,2,2.5,16
2019/8/14 6:54,1.4,2,1.4,2,2,3
2019/8/14 6:55,1.5,2,1.5,2,3.2,2
2019/8/14 6:56,1.5,2,1.5,2,2,1
2019/8/14 6:57,1.6,2,1.6,2,2,3
2019/8/14 6:58,1.5,2,1.6,2,2.6,4
2019/8/14 6:59,1.6,2,1.6,2,3.5,3
2019/8/14 7:00,1.6,2,1.6,2,2.7,2
2019/8/14 7:01,1.6,2,1.6,2,2.7,1
2019/8/14 7:02,1.6,2,1.6,2,2.7,2
2019/8/14 7:03,1.6,2,1.6,2,3,2
2019/8/14 7:04,1.7,2,1.7,2,3.3,1
2019/8/14 7:05,1.8,2,1.8,2,3.6,3
2019/8/14 7:06,1.9,2,1.9,2,4.3,3
2019/8/14 7:07,2,2,2,2,3,4
2019/8/14 7:08,2,2,2,2,2.4,4
2019/8/14 7:09,1.9,2,2,2,2.6,2
2019/8/14 7:10,2,2,2,2,3.1,3
2019/8/14 7:11,2.1,2,2.1,2,3.6,3
2019/8/14 7:12,2.1,2,2.1,2,2.6,3
2019/8/14 7:13,2.1,2,2.1,2,3.2,4
2019/8/14 7:14,2.1,2,2.1,2,3.7,1
2019/8/14 7:15,2,2,2.1,2,3.8,2
2019/8/14 7:16,2,2,2,2,3.7,2
2019/8/14 7:17,2,2,2,2,3.5,3
2019/8/14 7:18,2.1,2,2.1,2,3,3
2019/8/14 7:19,2.1,2,2.1,2,2.5,2
2019/8/14 7:20,2.2,2,2.2,2,4.9,3
2019/8/14 7:21,2.2,2,2.2,2,4.3,3
2019/8/14 7:22,2.2,2,2.2,2,2.5,2
2019/8/14 7:23,2.3,2,2.3,2,4.5,3
2019/8/14 7:24,2.5,2,2.5,2,4.9,3
2019/8/14 7:25,2.6,2,2.6,2,3.9,3
2019/8/14 7:26,2.6,2,2.7,2,3.9,3
2019/8/14 7:27,2.6,2,2.6,2,3.1,2
2019/8/14 7:28,2.6,2,2.6,2,3,3
2019/8/14 7:29,2.7,2,2.7,2,4.9,3
2019/8/14 7:30,2.6,3,2.7,2,4.3,3
2019/8/14 7:31,2.6,3,2.6,2,4.1,2
2019/8/14 7:32,2.7,3,2.7,2,4.1,3
2019/8/14 7:33,2.5,3,2.6,2,3,2
2019/8/14 7:34,2.3,2,2.5,2,4.1,2
2019/8/14 7:35,2.3,2,2.3,2,3.7,3
2019/8/14 7:36,2.2,2,2.3,2,3,4
2019/8/14 7:37,2.1,2,2.2,2,2.2,2
2019/8/14 7:38,2.1,2,2.2,2,2.9,2
2019/8/14 7:39,2.1,2,2.2,3,3.2,4
2019/8/14 7:40,2.2,3,2.2,3,3.5,3
2019/8/14 7:41,2.1,2,2.2,3,3.3,4
2019/8/14 7:42,2,2,2.1,3,3,3
2019/8/14 7:43,1.9,2,2,3,1.6,2
2019/8/14 7:44,1.8,2,1.9,2,1.3,1
2019/8/14 7:45,1.7,3,1.8,2,2.1,4
2019/8/14 7:46,1.7,3,1.7,2,2,3
2019/8/14 7:47,1.8,3,1.8,2,3.3,5
2019/8/14 7:48,1.7,3,1.8,2,2.9,4
2019/8/14 7:49,1.7,3,1.7,3,3.8,2
2019/8/14 7:50,1.7,3,1.7,3,3.8,3
2019/8/14 7:51,1.7,3,1.7,2,2.6,5
2019/8/14 7:52,1.7,3,1.7,2,3,3
2019/8/14 7:53,1.8,4,1.8,2,3.5,3
2019/8/14 7:54,1.9,4,1.9,4,2.7,5
2019/8/14 7:55,1.9,4,1.9,4,2.2,5
2019/8/14 7:56,1.9,4,1.9,4,2.9,3
2019/8/14 7:57,2,4,2,4,4.1,4
2019/8/14 7:58,2,4,2,4,3.7,3
2019/8/14 7:59,2.1,4,2.1,4,4.3,3
2019/8/14 8:00,2,3,2,4,4.1,2
2019/8/14 8:01,2.1,3,2.1,4,4.5,3
2019/8/14 8:02,2.1,3,2.1,4,3.8,3
2019/8/14 8:03,2.2,3,2.2,3,3.9,4
2019/8/14 8:04,2.2,3,2.2,3,3.3,2
2019/8/14 8:05,2.3,3,2.3,3,3.7,3
2019/8/14 8:06,2.3,3,2.3,3,2.9,4
2019/8/14 8:07,2.2,3,2.3,3,3.2,3
2019/8/14 8:08,2.2,3,2.2,3,3.1,3
2019/8/14 8:09,2.1,3,2.2,3,3,3
2019/8/14 8:10,2.2,3,2.2,3,3.3,1
2019/8/14 8:11,2.1,3,2.2,3,3.2,2
2019/8/14 8:12,2.1,3,2.2,3,4.4,4
2019/8/14 8:13,2.2,3,2.2,3,4.9,3
2019/8/14 8:14,2.4,3,2.4,3,5.1,3
2019/8/14 8:15,2.5,2,2.5,2,5.1,2
2019/8/14 8:16,2.6,2,2.6,2,4.7,2
2019/8/14 8:17,2.7,2,2.7,2,4.2,4
2019/8/14 8:18,2.8,2,2.8,2,4.9,4
2019/8/14 8:19,2.8,2,2.8,2,3.2,3
2019/8/14 8:20,2.8,3,2.8,2,3.5,2
2019/8/14 8:21,3,3,3,3,5.1,4
2019/8/14 8:22,3.2,3,3.2,3,7.4,3
2019/8/14 8:23,3.2,3,3.3,3,6.5,3
2019/8/14 8:24,3.2,3,3.2,3,5.4,2
2019/8/14 8:25,3.2,3,3.3,3,4.8,3
2019/8/14 8:26,3.2,3,3.2,3,4.9,3
2019/8/14 8:27,3.3,3,3.3,3,5.6,3
2019/8/14 8:28,3.4,3,3.4,3,6.3,4
2019/8/14 8:29,3.6,3,3.6,3,5.7,3
2019/8/14 8:30,3.7,3,3.7,3,4.9,3
2019/8/14 8:31,3.6,3,3.7,3,5.8,4
2019/8/14 8:32,3.7,3,3.7,3,6.7,4
2019/8/14 8:33,3.7,3,3.7,3,7.2,4
2019/8/14 8:34,3.6,3,3.7,3,4.1,5
2019/8/14 8:35,3.5,3,3.6,3,4.5,3
2019/8/14 8:36,3.4,4,3.5,3,3.9,3
2019/8/14 8:37,3.4,4,3.4,3,5.8,5
2019/8/14 8:38,3.4,4,3.4,3,6,4
2019/8/14 8:39,3.4,4,3.4,3,5.7,3
2019/8/14 8:40,3.6,4,3.6,3,7.9,3
2019/8/14 8:41,3.8,4,3.8,4,7.7,3
2019/8/14 8:42,3.7,4,3.8,4,6.7,3
2019/8/14 8:43,3.6,4,3.7,4,5.6,5
2019/8/14 8:44,3.5,4,3.6,4,2.9,4
2019/8/14 8:45,3.5,4,3.5,4,4.5,2
2019/8/14 8:46,3.8,4,3.8,4,7.1,3
2019/8/14 8:47,3.8,3,3.8,4,5.6,3
2019/8/14 8:48,3.8,3,3.8,4,5.8,3
2019/8/14 8:49,3.6,3,3.8,4,4.3,3
2019/8/14 8:50,3.3,3,3.6,4,3.2,4
2019/8/14 8:51,3.2,4,3.3,4,6.3,5
2019/8/14 8:52,3.2,4,3.2,4,5.1,5
2019/8/14 8:53,3.3,3,3.3,4,6.1,4
2019/8/14 8:54,3.4,4,3.4,4,4.3,4
2019/8/14 8:55,3.4,4,3.4,4,4.5,5
2019/8/14 8:56,3.2,4,3.4,4,3.8,6
2019/8/14 8:57,3,4,3.1,3,4.8,2
2019/8/14 8:58,2.9,4,3,3,4.7,3
2019/8/14 8:59,3,4,3,3,5.1,4
2019/8/14 9:00,3.2,4,3.2,4,4.9,5
2019/8/14 9:01,3,4,3.2,4,4.3,4
2019/8/14 9:02,3.1,4,3.1,4,6.3,3
2019/8/14 9:03,3.3,4,3.3,4,7.4,5
2019/8/14 9:04,3.5,4,3.5,4,7.5,4
2019/8/14 9:05,3.6,4,3.6,4,6,6
2019/8/14 9:06,3.7,4,3.7,4,4.9,4
2019/8/14 9:07,3.9,4,3.9,4,7.2,6
2019/8/14 9:08,4.2,4,4.2,4,7.2,4
2019/8/14 9:09,4.2,4,4.2,4,6.5,4
2019/8/14 9:10,4.4,4,4.4,4,7.2,4
2019/8/14 9:11,4.3,4,4.4,4,4.5,3
2019/8/14 9:12,4.1,4,4.3,4,3.9,3
2019/8/14 9:13,3.9,4,4.1,4,5.8,5
2019/8/14 9:14,3.7,4,3.9,4,5.6,5
2019/8/14 9:15,3.6,4,3.7,4,3.3,3
2019/8/14 9:16,3.5,4,3.5,4,5.2,3
2019/8/14 9:17,3.4,4,3.5,4,4.9,3
2019/8/14 9:18,3,3,3.3,4,3.2,2
2019/8/14 9:19,2.9,3,3,4,5,4
2019/8/14 9:20,3,3,3,4,7,4
2019/8/14 9:21,3.1,3,3.1,4,7.2,5
2019/8/14 9:22,3.2,3,3.2,4,7.5,3
2019/8/14 9:23,3.3,3,3.3,4,7,3
2019/8/14 9:24,3.5,3,3.5,4,10.5,3
2019/8/14 9:25,4.1,3,4.1,3,10.2,4
2019/8/14 9:26,4.4,3,4.4,3,8.2,3
2019/8/14 9:27,4.5,4,4.5,4,6.3,5
2019/8/14 9:28,4.7,4,4.7,4,6.4,5
2019/8/14 9:29,4.7,4,4.7,4,7,4
2019/8/14 9:30,4.6,4,4.8,4,7,4
2019/8/14 9:31,4.6,4,4.6,4,6.1,6
2019/8/14 9:32,4.7,4,4.7,4,7.9,5
2019/8/14 9:33,4.8,4,4.8,4,8.7,5
2019/8/14 9:34,4.5,4,4.8,4,5.5,5
2019/8/14 9:35,4.1,4,4.5,4,4.8,3
2019/8/14 9:36,3.8,5,4.1,4,5.7,5
2019/8/14 9:37,3.6,5,3.8,4,5,3
2019/8/14 9:38,3.8,5,3.8,4,7.7,5
2019/8/14 9:39,3.9,5,3.9,4,7.8,5
2019/8/14 9:40,4.1,5,4.1,4,8.1,3
2019/8/14 9:41,4.1,4,4.1,4,6.9,4
2019/8/14 9:42,4.2,4,4.2,4,10.1,3
2019/8/14 9:43,4.5,4,4.5,4,10.7,3
2019/8/14 9:44,4.7,4,4.7,4,11.3,3
2019/8/14 9:45,4.8,4,4.8,4,7.2,3
2019/8/14 9:46,5,4,5,4,6.9,3
2019/8/14 9:47,5.3,3,5.3,3,7.4,3
2019/8/14 9:48,5.3,3,5.3,3,9.4,3
2019/8/14 9:49,5.3,3,5.4,3,8.9,3
2019/8/14 9:50,5.4,3,5.4,3,9.8,3
2019/8/14 9:51,5.6,3,5.6,3,10.6,3
2019/8/14 9:52,5.5,3,5.7,3,7.4,4
2019/8/14 9:53,5.2,3,5.5,3,7,3
2019/8/14 9:54,5,3,5.1,3,5.4,3
2019/8/14 9:55,5.2,3,5.2,3,8.6,3
2019/8/14 9:56,5.1,3,5.3,3,5.1,3
2019/8/14 9:57,5,3,5,3,6.7,3
2019/8/14 9:58,5,3,5.1,3,9.2,5
2019/8/14 9:59,5.2,4,5.2,3,10.1,5
2019/8/14 10:00,4.9,4,5.2,3,9.7,5
2019/8/14 10:01,4.6,4,4.9,3,6.4,3
2019/8/14 10:02,4.6,4,4.7,3,8.6,3
2019/8/14 10:03,4.9,4,4.9,3,10.5,3
2019/8/14 10:04,5.1,4,5.1,3,8.7,3
2019/8/14 10:05,5.1,4,5.1,3,10,4
2019/8/14 10:06,5.4,4,5.4,4,10.2,3
2019/8/14 10:07,5.5,4,5.5,4,8.5,4
2019/8/14 10:08,5.3,4,5.5,4,6.8,4
2019/8/14 10:09,5.3,4,5.4,4,9.5,6
2019/8/14 10:10,5.4,4,5.4,4,9.5,6
2019/8/14 10:11,5.6,4,5.6,4,10.5,5
2019/8/14 10:12,5.8,4,5.8,4,10.6,5
2019/8/14 10:13,5.6,4,5.7,4,9.8,3
2019/8/14 10:14,5.6,4,5.6,4,6.9,5
2019/8/14 10:15,5.4,4,5.6,4,7.7,4
2019/8/14 10:16,5.2,4,5.4,4,4.9,3
2019/8/14 10:17,5.1,4,5.2,4,6.2,3
2019/8/14 10:18,5.3,4,5.3,4,7.5,4
2019/8/14 10:19,5.1,4,5.3,4,6.7,5
2019/8/14 10:20,5,4,5,4,8.3,5
2019/8/14 10:21,4.9,4,5.1,4,6.7,5
2019/8/14 10:22,4.7,5,4.9,4,5.8,5
2019/8/14 10:23,4.4,5,4.7,4,6,3
2019/8/14 10:24,4.3,4,4.4,4,7.9,3
2019/8/14 10:25,4.4,4,4.4,4,8.9,5
2019/8/14 10:26,4.6,4,4.6,4,8.4,4
2019/8/14 10:27,4.7,4,4.7,4,7.9,4
2019/8/14 10:28,4.7,5,4.7,4,8.1,5
2019/8/14 10:29,4.7,5,4.7,4,6.5,6
2019/8/14 10:30,4.7,4,4.8,4,7.7,3
2019/8/14 10:31,4.6,4,4.7,4,6.7,3
2019/8/14 10:32,4.6,4,4.7,4,6.5,3
2019/8/14 10:33,4.7,4,4.7,4,7.1,4
2019/8/14 10:34,4.7,4,4.8,4,7,3
2019/8/14 10:35,4.5,4,4.8,4,6.8,3
2019/8/14 10:36,4.3,4,4.4,4,6.1,3
2019/8/14 10:37,4,4,4.3,4,5.8,3
2019/8/14 10:38,4.1,4,4.1,4,8.9,4
2019/8/14 10:39,4.2,3,4.2,4,11.1,3
2019/8/14 10:40,4.2,3,4.2,4,8.2,3
2019/8/14 10:41,4.2,3,4.2,4,6.8,3
2019/8/14 10:42,4.5,3,4.5,4,9.9,3
2019/8/14 10:43,4.5,3,4.6,4,7.8,3
2019/8/14 10:44,4.4,3,4.5,4,6.8,5
2019/8/14 10:45,4.6,4,4.6,3,7.6,5
2019/8/14 10:46,4.6,4,4.7,4,6.3,7
2019/8/14 10:47,4.8,4,4.9,4,7.1,6
2019/8/14 10:48,4.7,4,4.9,4,7.9,6
2019/8/14 10:49,4.4,4,4.6,4,4.9,6
2019/8/14 10:50,4.3,4,4.4,4,6.2,4
2019/8/14 10:51,4.4,4,4.4,4,7.7,4
2019/8/14 10:52,4.2,4,4.4,4,7.4,3
2019/8/14 10:53,4.3,4,4.3,4,8.3,5
2019/8/14 10:54,4.5,4,4.5,4,6.5,4
2019/8/14 10:55,4.8,4,4.8,4,11.9,3
2019/8/14 10:56,5,4,5,4,10.9,3
2019/8/14 10:57,5.1,4,5.2,4,7.7,3
2019/8/14 10:58,5.2,4,5.2,4,8.2,4
2019/8/14 10:59,5.2,4,5.2,4,6.1,4
2019/8/14 11:00,5.3,4,5.3,4,7.7,5
2019/8/14 11:01,5.1,4,5.3,4,5.1,3
2019/8/14 11:02,5,4,5.1,4,8.4,3
2019/8/14 11:03,5,4,5,4,8.4,3
2019/8/14 11:04,5.1,4,5.2,4,10.6,3
2019/8/14 11:05,5,3,5.1,4,10.2,3
2019/8/14 11:06,4.9,3,5,4,8.4,3
2019/8/14 11:07,5.1,3,5.1,4,9.2,3
2019/8/14 11:08,5.1,3,5.1,4,9.3,3
2019/8/14 11:09,5.4,3,5.4,3,11.8,3
2019/8/14 11:10,5.6,3,5.6,3,11.6,4
2019/8/14 11:11,5.9,3,5.9,3,9.7,3
2019/8/14 11:12,6.2,3,6.2,3,8.6,6
2019/8/14 11:13,6,4,6.1,3,6.9,5
2019/8/14 11:14,6,4,6,3,11,6
2019/8/14 11:15,6.1,4,6.1,3,11.4,6
2019/8/14 11:16,6,4,6,3,9.8,6
2019/8/14 11:17,6.1,5,6.1,3,10.1,6
2019/8/14 11:18,6.3,5,6.3,5,11.7,6
2019/8/14 11:19,6.3,5,6.3,5,9.9,6
2019/8/14 11:20,6.2,6,6.3,5,10,6
2019/8/14 11:21,6.2,6,6.2,5,10.6,6
2019/8/14 11:22,6.3,6,6.3,5,10.2,7
2019/8/14 11:23,6.5,6,6.5,6,8.2,5
2019/8/14 11:24,6.3,6,6.5,6,9.9,5
2019/8/14 11:25,6.2,6,6.3,6,8.2,7
2019/8/14 11:26,6.2,6,6.2,6,7.7,6
2019/8/14 11:27,5.8,5,6.2,6,4.9,5
2019/8/14 11:28,5.3,5,5.7,6,5.4,4
2019/8/14 11:29,5.3,5,5.3,6,9.7,7
2019/8/14 11:30,5,5,5.3,6,9,5
2019/8/14 11:31,4.9,5,5,6,6.5,5
2019/8/14 11:32,5.1,5,5.1,6,13.6,6
2019/8/14 11:33,5.2,5,5.2,6,11.3,7
2019/8/14 11:34,5.2,5,5.2,6,10.6,6
2019/8/14 11:35,5.3,5,5.4,6,11.1,5
2019/8/14 11:36,5.4,5,5.4,6,10.2,5
2019/8/14 11:37,5.5,5,5.5,5,9,5
2019/8/14 11:38,5.6,5,5.6,5,6.5,2
2019/8/14 11:39,5.5,4,5.6,5,9.8,3
2019/8/14 11:40,5.4,4,5.5,5,4.8,2
2019/8/14 11:41,5.5,4,5.5,5,11.6,4
2019/8/14 11:42,5.3,4,5.6,5,12.4,5
2019/8/14 11:43,5.5,4,5.5,5,12.2,5
2019/8/14 11:44,5.5,4,5.6,5,10,5
2019/8/14 11:45,5.6,4,5.7,4,11.4,4
2019/8/14 11:46,6,4,6,4,14.3,3
2019/8/14 11:47,6.2,4,6.2,4,11.3,5